Regional Weather Roundup
Issued by NWS

Home | Current Version | Previous Version | Graphics & Text | Print | Product List | Glossary Off
Versions: 1 2 3 4 5 6 7 8 9 10 11 12 13 14 15 16 17 18 19 20 21 22 23 24 25 26 27 28 29 30 31 32 33 34 35 36 37 38 39 40 41 42 43 44 45 46 47 48 49 50

438
ASUS43 KTOP 161459
RWRKS

WEATHER ROUNDUP FOR KANSAS
NATIONAL WEATHER SERVICE GOODLAND KS
1000 AM CDT WED AUG 16 2017

NOTE:  "FAIR" INDICATES FEW OR NO CLOUDS BELOW 12,000 FEET WITH NO
SIGNIFICANT WEATHER AND/OR OBSTRUCTIONS TO VISIBILITY.

KSZ001>006-013>018-027>032-041>047-161600-
NORTHWEST KANSAS

CITY           SKY/WX    TMP DP  RH WIND       PRES   REMARKS
GOODLAND       CLOUDY    64  59  83 W7        30.00F
HAYS           CLOUDY    66  63  90 NW13      29.91R
HILL CITY      LGT RAIN  66  63  90 N10       29.88F
RUSSELL        SUNNY     69  63  81 NW3       29.86R
$$

KSZ061>065-074>080-084>089-161600-
SOUTHWEST KANSAS

CITY           SKY/WX    TMP DP  RH WIND       PRES   REMARKS
DODGE CITY     SUNNY     72  63  73 CALM      29.90F
ELKHART          N/A     66  61  84 N12         N/A
GARDEN CITY    SUNNY     70  60  70 NE5       29.94R
GREAT BEND     SUNNY     72  65  78 SE9       29.85S
LIBERAL        CLOUDY    68  62  81 N13       29.96R
$$

KSZ066>073-081>083-090>101-161600-
SOUTHEAST KANSAS

CITY           SKY/WX    TMP DP  RH WIND       PRES   REMARKS
CHANUTE        PTSUNNY   79  73  82 SW9       29.89R
COFFEYVILLE    MOSUNNY   83  74  74 S15       29.87S
HUTCHINSON     CLOUDY    71  65  81 SE14      29.84F
MEDICINE LODGE   N/A     78  70  76 CALM      29.84S
NEWTON         CLOUDY    69  66  90 E9        29.87F
PARSONS        MOSUNNY   82  73  74 S10G21    29.88S
WICHITA INTL   CLOUDY    69  67  93 E13       29.87F
WICHITA JABRA  CLOUDY    67 N/A N/A E10       29.87F
WICHITA MCCONL CLOUDY    68  64  88 NE9       29.88F
WINFIELD       MOSUNNY   81  73  76 W8        29.88R
$$

KSZ007>012-019>026-033>040-048>060-102>105-161600-
NORTHEAST KANSAS

CITY           SKY/WX    TMP DP  RH WIND       PRES   REMARKS
CONCORDIA      CLOUDY    69  67  93 W8        29.84R
EMPORIA        LGT RAIN  66  64  93 NE6       29.90R
LAWRENCE       LGT RAIN  75  74  96 S12       29.85R
MANHATTAN      CLOUDY    68  65  90 SE3       29.79F
OLATHE IND     CLOUDY    76  73  91 S13       29.87R
OLATHE EXE     CLOUDY    77  74  90 S12       29.86S
SALINA         CLOUDY    72  66  81 SE7       29.83R
TOPEKA BILLARD LGT RAIN  71  67  87 W6        29.86F
TOPEKA FORBES  LGT RAIN  71  67  87 NW8       29.88R
$$




USA.gov is the U.S. government's official web portal to all federal, state and local government web resources and services.